Home   Weather   Hinckley   Past weeks

Flag for United Kingdom Past Weather in Hinckley, England, United Kingdom — Yesterday and Last 2 Weeks

Now
59 °F

Light rain. Cloudy.


Feels Like: 58 °F
Forecast: 48 / 60 °F
Wind: 8 mph from West

Location: Church Lawford

Current Time: Sep 29, 2016 at 11:12:27 AM

Latest Report: Sep 29, 2016 at 8:00 AM


Visibility: 25 mi

Pressure: 29.89 "Hg

Humidity: 94%

Dew Point: 57 °F

Location of HinckleyLocation

Past Weather in Hinckley — Graph

°F

Hinckley Temperature Yesterday

Maximum temperature yesterday: 71 °F (at 2:00 PM)
Minimum temperature yesterday: 53 °F (at 4:00 AM)
Average temperature yesterday: 62 °F

High & Low Weather Summary for the Past Weeks

 TemperatureHumidityPressure
High81 °F (Sep 14, 4:00 PM)100% (Sep 15, 5:00 AM)30.26 "Hg (Sep 15, 5:00 AM)
Low45 °F (Sep 23, 5:00 AM)52% (Sep 23, 5:00 PM)29.72 "Hg (Sep 25, 4:00 AM)
Average59 °F84%30.06 "Hg
* Reported Sep 14 8:00 AM — Sep 29 8:00 AM, Hinckley, Weather by CustomWeather, © 2016

Note: Actual official high and low records may vary slightly from our data, if they occured in-between our weather recording intervals... More about our weather records

Advertising

Hinckley Weather History for the Previous 24 Hours

Scroll right to see more
 ConditionsComfort  
Time TempWeatherWind HumidityBarometerVisibility
8:00 AM
Thu, Sep 29
59 °FLight rain. Cloudy.8 mph94%29.89 "Hg25 mi
7:00 AM59 °FRain. Overcast.15 mph95%29.89 "Hg3 mi
6:00 AM62 °FCool.12 mph88%29.89 "Hg31 mi
5:00 AM63 °FMild.12 mph83%29.90 "Hg15 mi
4:00 AM63 °FMild.12 mph82%29.92 "Hg31 mi
3:00 AM64 °FMild.12 mph84%29.94 "Hg31 mi
2:00 AM64 °FMild.13 mph84%29.97 "Hg25 mi
1:00 AM65 °FMild.13 mph85%29.98 "Hg31 mi
12:00 AM64 °FMild.8 mph91%30.01 "Hg19 mi
11:00 PM
Wed, Sep 28
64 °FMild.8 mph94%30.03 "Hg14 mi
10:00 PM64 °FMild.9 mph92%30.06 "Hg11 mi
9:00 PM66 °FMild.12 mph90%30.07 "Hg18 mi
8:00 PM65 °FMild.10 mph89%30.08 "Hg22 mi
7:00 PM66 °FMild.9 mph85%30.09 "Hg19 mi
6:00 PM67 °FMild.10 mph82%30.10 "Hg18 mi
5:00 PM68 °FMild.10 mph78%30.13 "Hg19 mi
4:00 PM70 °FMild.13 mph74%30.14 "Hg19 mi
3:00 PM71 °FMild.14 mph73%30.15 "Hg19 mi
2:00 PM71 °FMild.12 mph75%30.16 "Hg12 mi
1:00 PM67 °FMild.N/A78%30.18 "Hg12 mi
12:00 PM64 °FMild.9 mph80%30.20 "Hg9 mi
11:00 AM63 °FMild.9 mph80%30.21 "Hg10 mi
Weather by CustomWeather, © 2016

See weather overviewHow to use our weather pages